カタログに戻る

CZ-6A DEB

運用中PO
NORAD 61329·DEBRIS·🇨🇳 China

打ち上げ Aug 6, 2024 から Taiyuan Satellite Launch Center

Loading…

次のパス (今後24時間)

TLE

最新Source: Space-Track

元期: Sep 14, 2026, 08:32 UTC

1 61329U 24140US  26257.35569056  .00001611  00000-0  58005-3 0  9993
2 61329  88.5870 225.3097 0077388 141.8840 218.7866 14.31589472105846

AllMySatでCZ-6A DEBをリアルタイム追跡

Download on the App Store